Terug naar catalogus

FENGYUN 1C DEB

ActiefSSO
NORAD 31275·DEBRIS·🇨🇳 China

Gelanceerd May 10, 1999 vanaf Taiyuan Satellite Launch Center

Loading…

Volgende Passages (komende 24 uur)

TLE

VersSource: Space-Track

Epoch: Sep 14, 2026, 08:12 UTC

1 31275U 99025BNH 26257.34182259  .00001000  00000-0  64153-3 0  9992
2 31275  98.9194 300.4216 0102362 305.9514  53.2189 14.03051369993503

Volg FENGYUN 1C DEB in realtime met AllMySat

Download on the App Store